Location: Bothwell
(42.3833°S, 147.0000°E)
Time: 23:02:17
(UTC+10:00)

CUTE 1.7 + AOD 2 - Pass Details

Date: 30 January 2023
Orbit: 584 x 601 km, 97.7° (Epoch: 02 April)

Event Time Altitude Azimuth Distance (km) Brightness Sun altitude
Exits shadow 04:06:16 34° 8° (N) 983 ? -19.2°
Maximum altitude 04:08:02 83° 284° (WNW) 605 ? -19.0°
Drops below altitude 10° 04:12:16 10° 194° (SSW) 1,946 ? -18.5°
Sets 04:14:28 0° 193° (SSW) 2,857 ? -18.2°
